Location: T�bingen+AIT
(48.5342°N, 9.0700°E)
Time: 20:27:18
(UTC+02:00)

Cosmos 2218 Rocket - Pass Details

Date: 14 September 2017
Orbit: 955 x 1007 km, 82.9° (Epoch: 19 September)

Event Time Altitude Azimuth Distance (km) Brightness Sun altitude
Exits shadow 23:45:47 57° 328° (NNW) 1,146 4.5 -34.5°
Drops below altitude 10° 23:51:00 10° 5° (N) 2,733 6.9 -35.0°
Sets 23:53:33 0° 8° (N) 3,677 7.7 -35.1°
